Regional Weather Roundup
Issued by NWS Sioux Falls, SD

Home | Current Version | Previous Version | Text Only | Print | Product List | Glossary On
Versions: 1 2 3 4 5 6 7 8 9 10 11 12 13 14 15 16 17 18 19 20 21 22 23 24 25 26 27 28 29 30 31 32 33 34 35 36 37 38 39 40 41 42 43 44 45 46 47 48 49 50
538
ASUS43 KFSD 291210
RWRFSD

WEATHER ROUNDUP FOR SE SOUTH DAKOTA/SW MINNESOTA/NW IOWA
NATIONAL WEATHER SERVICE SIOUX FALLS SD
700 AM CDT SAT JUL 29 2017

NOTE: "FAIR" INDICATES FEW OR NO CLOUDS BELOW 12,000 FEET WITH NO
SIGNIFICANT WEATHER AND OR OBSTRUCTIONS TO VISIBILITY.


SDZ038>040-050-052>070-291300-
SOUTHEAST SOUTH DAKOTA

CITY           SKY/WX    TMP DP  RH WIND       PRES   REMARKS
BROOKINGS      CLEAR     63  60  90 SE5       30.14R
CHAMBERLAIN    CLEAR     66  66  99 SE8       30.08R
6HR MIN TEMP:  65; 6HR MAX TEMP:  71;

HURON          CLEAR     63  61  93 SE8       30.09R
6HR MIN TEMP:  63; 6HR MAX TEMP:  68;

MADISON        FAIR      59  59 100 E6        30.14R
MITCHELL       CLEAR     63  62  97 SE6       30.10R
6HR MIN TEMP:  62; 6HR MAX TEMP:  67;

SIOUX FALLS    CLEAR     63  62  97 NE3       30.12R
6HR MIN TEMP:  61; 6HR MAX TEMP:  67;

WINNER         FAIR      67  63  87 SE9       30.07R
YANKTON        CLEAR     63  62  97 E6        30.11R FOG
$$

MNZ071-072-080-081-089-090-097-098-291300-
SOUTHWEST MINNESOTA

CITY           SKY/WX    TMP DP  RH WIND       PRES   REMARKS
FAIRMONT       CLEAR     59  57  93 CALM      30.16R
JACKSON        CLEAR     63  55  77 CALM      30.16R
LUVERNE        CLEAR     61  59  94 NE3       30.14R
MARSHALL       PTCLDY    62  60  93 S3        30.14R FOG
6HR MIN TEMP:  60; 6HR MAX TEMP:  66;

MONTEVIDEO     CLEAR     63  63 100 S5        30.14R
PIPESTONE      CLEAR     63  59  88 SE5       30.14S
REDWOOD FALLS  CLEAR     59  57  93 E3        30.14R
TRACY          CLEAR     66  60  81 S7        30.14S
WINDOM         CLEAR     64  57  77 CALM      30.16R
WORTHINGTON    CLEAR     60  57  89 SE7       30.16R
$$

IAZ001>003-012>014-020>022-031-032-NEZ013-014-SDZ071-291300-
NORTHWEST IOWA

CITY           SKY/WX    TMP DP  RH WIND       PRES   REMARKS
CHEROKEE       CLEAR     63  62  97 CALM      30.13S
DENISON        CLEAR     63  63 100 MISG      30.14R
ESTHERVILLE    CLEAR     58  56  93 CALM      30.15R
ORANGE CITY    CLEAR     64  63  94 E3        30.13R
SHELDON        CLEAR     63  59  88 VRB3      30.12R
SIOUX CITY     CLEAR     63  63 100 E5        30.11R
6HR MIN TEMP:  60; 6HR MAX TEMP:  65;

SPENCER        CLEAR     60  58  92 E6        30.15R
6HR MIN TEMP:  59; 6HR MAX TEMP:  64;

STORM LAKE     CLEAR     63  61  94 SE6       30.14R
$$

ABBREVIATIONS USED IN REMARKS
   TC - TEMPERATURE IN CELSIUS
  WCI - WIND CHILL INDEX
   HX - HEAT INDEX
  VSB - VISIBILITY





USA.gov is the U.S. government's official web portal to all federal, state and local government web resources and services.